Weather History for Corinth, MS

Change the Weather History Date:

Saturday, December 24, 2011

  Actual Average Record
Temperature  
Mean Temperature 42 °F -  
Max Temperature 50 °F 48 °F 70 °F (1932)
Min Temperature 35 °F 28 °F -1 °F (1983)
Degree Days  
Heating Degree Days 22    
Moisture  
Dew Point 33 °F    
Average Humidity 72    
Maximum Humidity 87    
Minimum Humidity 50    
Precipitation  
Precipitation 0.00 in - - ()
Sea Level Pressure  
Sea Level Pressure 30.43 in    
Wind  
Wind Speed 5 mph (NNE)    
Max Wind Speed 10 mph    
Max Gust Speed -    
Visibility 10 miles    
Events      
Averages and records for this station are not official NWS values.
T = Trace of Precipitation, MM = Missing Value Source: NWS Daily Summary

Daily Weather History Graph

Daily Weather History Graph

Search for Another Location

Airport:

Trip Planner

Search our weather history database for the weather conditions in past years. The results will help you decide how hot, cold, wet, or windy it might be!

Date:

Astronomy

Dec. 24, 2011 Rise Set
Actual Time 6:59 AM CST 4:48 PM CST
Civil Twilight 6:31 AM CST 5:16 PM CST
Nautical Twilight 5:59 AM CST 5:48 PM CST
Astronomical Twilight 5:28 AM CST 6:19 PM CST
Moon 6:47 AM CST (12/24) 5:00 PM CST (12/24)
Length of Visible Light 10h 45m
Length of Day
9h 48m
Waxing Crescent, 0% of the Moon is Illuminated
Dec 24
Waxing Crescent
Dec 24
New
Jan 1
First Quarter
Jan 9
Full
Jan 16
Last Quarter

Hourly Weather History & Observations

Time (CST) Temp. Windchill Dew Point Humidity Pressure Visibility Wind Dir Wind Speed Gust Speed Precip Events Conditions
12:15 AM 39.2 °F 35.9 °F 32.0 °F 75% 30.42 in 10.0 mi North 4.6 mph - N/A   Overcast
12:35 AM 39.2 °F 35.9 °F 32.0 °F 75% 30.42 in 10.0 mi North 4.6 mph - N/A   Overcast
12:55 AM 39.2 °F 35.9 °F 32.0 °F 75% 30.42 in 10.0 mi North 4.6 mph - N/A   Overcast
1:35 AM 39.2 °F 35.0 °F 32.0 °F 75% 30.42 in 10.0 mi North 5.8 mph - N/A   Overcast
1:55 AM 39.2 °F 34.2 °F 32.0 °F 75% 30.43 in 10.0 mi North 6.9 mph - N/A   Overcast
2:15 AM 39.2 °F 33.6 °F 32.0 °F 75% 30.43 in 10.0 mi North 8.1 mph - N/A   Overcast
2:35 AM 39.2 °F 34.2 °F 32.0 °F 75% 30.43 in 10.0 mi NNE 6.9 mph - N/A   Overcast
3:15 AM 39.2 °F 33.6 °F 32.0 °F 75% 30.43 in 10.0 mi North 8.1 mph - N/A   Overcast
3:35 AM 39.2 °F 33.6 °F 32.0 °F 75% 30.43 in 10.0 mi North 8.1 mph - N/A   Overcast
4:15 AM 37.4 °F 31.4 °F 32.0 °F 81% 30.43 in 10.0 mi NE 8.1 mph - N/A   Overcast
4:35 AM 37.4 °F 30.8 °F 32.0 °F 81% 30.43 in 10.0 mi NE 9.2 mph - N/A   Overcast
4:55 AM 37.4 °F 32.8 °F 32.0 °F 81% 30.44 in 10.0 mi NNE 5.8 mph - N/A   Overcast
5:15 AM 37.4 °F 33.8 °F 32.0 °F 81% 30.44 in 10.0 mi NE 4.6 mph - N/A   Overcast
5:35 AM 37.4 °F 32.8 °F 32.0 °F 81% 30.44 in 10.0 mi NE 5.8 mph - N/A   Overcast
5:55 AM 37.4 °F 32.8 °F 32.0 °F 81% 30.44 in 10.0 mi NNE 5.8 mph - N/A   Overcast
6:15 AM 37.4 °F 32.8 °F 32.0 °F 81% 30.45 in 10.0 mi North 5.8 mph - N/A   Overcast
6:35 AM 37.4 °F 34.9 °F 32.0 °F 81% 30.46 in 10.0 mi NE 3.5 mph - N/A   Overcast
6:55 AM 37.4 °F 34.9 °F 32.0 °F 81% 30.46 in 10.0 mi NE 3.5 mph - N/A   Overcast
7:15 AM 37.4 °F 34.9 °F 32.0 °F 81% 30.47 in 10.0 mi NE 3.5 mph - N/A   Overcast
7:35 AM 35.6 °F - 32.0 °F 87% 30.47 in 10.0 mi Calm Calm - N/A   Overcast
7:55 AM 37.4 °F 32.8 °F 32.0 °F 81% 30.47 in 10.0 mi NNE 5.8 mph - N/A   Overcast
8:15 AM 37.4 °F 33.8 °F 32.0 °F 81% 30.48 in 10.0 mi NNE 4.6 mph - N/A   Mostly Cloudy
8:35 AM 37.4 °F 33.8 °F 32.0 °F 81% 30.49 in 10.0 mi NE 4.6 mph - N/A   Mostly Cloudy
9:15 AM 39.2 °F 34.2 °F 32.0 °F 75% 30.49 in 10.0 mi NE 6.9 mph - N/A   Mostly Cloudy
9:35 AM 39.2 °F 35.0 °F 32.0 °F 75% 30.49 in 10.0 mi ENE 5.8 mph - N/A   Clear
9:55 AM 41.0 °F 35.2 °F 32.0 °F 70% 30.48 in 10.0 mi ENE 9.2 mph - N/A   Clear
10:15 AM 41.0 °F 34.7 °F 32.0 °F 70% 30.48 in 10.0 mi NE 10.4 mph - N/A   Clear
10:35 AM 41.0 °F 36.4 °F 32.0 °F 70% 30.48 in 10.0 mi NE 6.9 mph - N/A   Clear
10:55 AM 42.8 °F 40.1 °F 32.0 °F 66% 30.47 in 10.0 mi North 4.6 mph - N/A   Clear
11:15 AM 44.6 °F 41.4 °F 32.0 °F 61% 30.46 in 10.0 mi ENE 5.8 mph - N/A   Clear
11:35 AM 42.8 °F - 32.0 °F 66% 30.46 in 10.0 mi Calm Calm - N/A   Clear
11:55 AM 44.6 °F 43.1 °F 32.0 °F 61% 30.45 in 10.0 mi WNW 3.5 mph - N/A   Clear
12:15 PM 44.6 °F 41.4 °F 33.8 °F 66% 30.43 in 10.0 mi East 5.8 mph - N/A   Clear
12:35 PM 46.4 °F 45.2 °F 32.0 °F 57% 30.42 in 10.0 mi ENE 3.5 mph - N/A   Clear
12:55 PM 46.4 °F 45.2 °F 32.0 °F 57% 30.40 in 10.0 mi East 3.5 mph - N/A   Clear
1:15 PM 46.4 °F 45.2 °F 32.0 °F 57% 30.39 in 10.0 mi East 3.5 mph - N/A   Clear
1:35 PM 48.2 °F - 32.0 °F 54% 30.39 in 10.0 mi ENE 3.5 mph - N/A   Clear
1:55 PM 48.2 °F - 32.0 °F 54% 30.38 in 10.0 mi ENE 4.6 mph - N/A   Clear
2:15 PM 48.2 °F - 32.0 °F 54% 30.37 in 10.0 mi Calm Calm - N/A   Clear
2:35 PM 48.2 °F - 32.0 °F 54% 30.39 in 10.0 mi Calm Calm - N/A   Clear
2:55 PM 48.2 °F - 32.0 °F 54% 30.38 in 10.0 mi ESE 3.5 mph - N/A   Clear
3:15 PM 50.0 °F - 32.0 °F 50% 30.38 in 10.0 mi NE 3.5 mph - N/A   Clear
3:35 PM 50.0 °F - 32.0 °F 50% 30.39 in 10.0 mi Calm Calm - N/A   Clear
3:55 PM 48.2 °F - 32.0 °F 54% 30.40 in 10.0 mi Calm Calm - N/A   Clear
4:15 PM 46.4 °F 44.3 °F 32.0 °F 57% 30.40 in 10.0 mi WNW 4.6 mph - N/A   Clear
4:35 PM 46.4 °F 45.2 °F 32.0 °F 57% 30.40 in 10.0 mi West 3.5 mph - N/A   Clear
4:55 PM 44.6 °F 43.1 °F 33.8 °F 66% 30.39 in 10.0 mi NNE 3.5 mph - N/A   Clear
5:15 PM 44.6 °F 43.1 °F 33.8 °F 66% 30.39 in 10.0 mi NNE 3.5 mph - N/A   Clear
5:35 PM 42.8 °F - 33.8 °F 70% 30.39 in 10.0 mi Calm Calm - N/A   Clear
5:55 PM 42.8 °F - 33.8 °F 70% 30.39 in 10.0 mi Calm Calm - N/A   Clear
6:15 PM 39.2 °F - 33.8 °F 81% 30.39 in 10.0 mi Calm Calm - N/A   Clear
6:35 PM 39.2 °F - 33.8 °F 81% 30.40 in 10.0 mi Calm Calm - N/A   Clear
6:55 PM 39.2 °F - 33.8 °F 81% 30.40 in 10.0 mi Calm Calm - N/A   Clear
7:15 PM 39.2 °F - 33.8 °F 81% 30.40 in 10.0 mi Calm Calm - N/A   Clear
7:35 PM 39.2 °F - 35.6 °F 87% 30.41 in 10.0 mi Calm Calm - N/A   Clear
7:55 PM 39.2 °F 37.0 °F 35.6 °F 87% 30.41 in 5.0 mi WNW 3.5 mph - N/A   Clear
8:15 PM 39.2 °F - 35.6 °F 87% 30.40 in 10.0 mi Calm Calm - N/A   Clear
8:35 PM 39.2 °F - 35.6 °F 87% 30.41 in 3.0 mi Calm Calm - N/A   Clear
8:55 PM 39.2 °F 37.0 °F 35.6 °F 87% 30.42 in 8.0 mi SW 3.5 mph - N/A   Partly Cloudy
9:15 PM 39.2 °F - 35.6 °F 87% 30.42 in 10.0 mi Calm Calm - N/A   Scattered Clouds
9:35 PM 39.2 °F 37.0 °F 35.6 °F 87% 30.42 in 10.0 mi SSE 3.5 mph - N/A   Mostly Cloudy
9:55 PM 39.2 °F - 37.4 °F 93% 30.43 in 5.0 mi Calm Calm - N/A   Mostly Cloudy
10:15 PM 39.2 °F - 37.4 °F 93% 30.42 in 10.0 mi Calm Calm - N/A   Clear
10:35 PM 39.2 °F - 37.4 °F 93% 30.42 in 8.0 mi Calm Calm - N/A   Mostly Cloudy
10:55 PM 39.2 °F - 35.6 °F 87% 30.41 in 10.0 mi Calm Calm - N/A   Overcast
11:15 PM 39.2 °F - 35.6 °F 87% 30.39 in 10.0 mi Calm Calm - N/A   Overcast
11:35 PM 39.2 °F - 35.6 °F 87% 30.40 in 10.0 mi Calm Calm - N/A   Overcast
11:55 PM 39.2 °F 35.9 °F 37.4 °F 93% 30.40 in 3.0 mi WNW 4.6 mph - N/A   Mostly Cloudy